[[{"header":{"parameterUnit":"m.s-1","parameterCategory":1,"la1":30.2991,"la2":30.254,"lo1":-89.0895,"lo2":-89.0444,"dy":0.0017,"dx":0.0017,"nx":28,"ny":28,"refTime":"2024-03-26T21:00:00:Z","depth":0,"parameterNumber":2,"parameterNumberName":"U-component_of_WINDS"},"data":[0,0,0,0,0,0,0,0,0,0,0,0,0,0,0,0,0,0,0,0,0,0,0,0,0,0,0,0,0,0,0,0,0,0,0,0,0,0,0,0,0,0,0,0,0,0,0,0,0,0,0,0,0,0,0,0,0,0,0.5648,0.5649,0,0.5696,0.5697,0.5698,0.5674,0.5672,0.5671,0.567,0.572,0.5722,0.5725,0,0,0,0,0,0,0,0,0,0,0,0,0,0.5535,0.5537,0.5648,0.5649,0.565,0.5696,0.5697,0.5698,0.5674,0.5672,0.5671,0.5669,0.5719,0.5722,0.5725,0,0,0,0,0,0,0,0,0,0,0,0,0,0.5584,0.5538,0.5648,0.5643,0.5643,0.5696,0.5697,0.5698,0.5674,0.5672,0.567,0.5669,0.5718,0.5722,0.5725,0.5786,0,0,0.5737,0.5738,0,0,0,0,0,0,0,0,0.5581,0.5588,0.5643,0.5644,0.5644,0.5677,0.5675,0.5727,0.5675,0.5662,0.567,0.5668,0.5707,0.5712,0.5725,0.5788,0.5791,0.5737,0.5739,0.5741,0.5742,0,0,0,0,0,0,0,0.5578,0.5586,0.5667,0.5644,0.5645,0.5638,0.5643,0.5685,0.5695,0.5663,0.5662,0.5668,0.5707,0.5721,0.5726,0.5791,0.5737,0.574,0.5743,0.5744,0.5904,0.5906,0,0,0,0,0,0,0.5575,0.5583,0.5666,0.5669,0.5607,0.5642,0.5647,0.5668,0.5694,0.5696,0.5669,0.5666,0.5716,0.5721,0.5727,0.5798,0.5741,0.5744,0.5747,0.5902,0.5905,0.5907,0,0,0,0,0,0,0.5572,0.5582,0.5664,0.5626,0.5635,0.5646,0.567,0.567,0.5685,0.5699,0.57,0.5682,0.5714,0.5722,0.5771,0.58,0.5746,0.575,0.59,0.5903,0.5906,0.5941,0,0,0,0,0,0,0.5569,0.5582,0.5605,0.5626,0.5638,0.5707,0.5671,0.5673,0.5691,0.5688,0.5711,0.5713,0.5714,0.5765,0.5775,0.5804,0.5752,0.5897,0.5901,0.5905,0.5938,0.5945,0.5952,0,0,0,0,0,0.5565,0.5614,0.5607,0.5617,0.5667,0.5709,0.5715,0.5714,0.5694,0.5717,0.5725,0.5713,0.5795,0.5771,0.5781,0.5812,0.5896,0.59,0.5905,0.5935,0.5944,0.5952,0,0,0,0,0,0,0.5597,0.5617,0.5609,0.5666,0.5686,0.5705,0.5734,0.5725,0.5751,0.5747,0.5745,0.575,0.58,0.5811,0.5784,0.587,0.5842,0.5849,0.5861,0.587,0.5877,0.5873,0.5756,0,0,0,0,0,0.5611,0.5643,0.5658,0.5707,0.5718,0.5724,0.5742,0.574,0.576,0.5769,0.5781,0.5802,0.5832,0.5852,0.5881,0.5939,0.5943,0.5965,0.5972,0.5978,0.5984,0.6013,0.6022,0.5922,0.5922,0.5922,0,0,0.5639,0.5654,0.5675,0.5714,0.5729,0.5761,0.5732,0.5768,0.5792,0.5774,0.582,0.583,0.5853,0.5906,0.593,0.5916,0.6012,0.5984,0.5988,0.5991,0.6018,0.6028,0.6036,0.5925,0.5924,0.5924,0,0,0.5707,0.5723,0.5764,0.5779,0.5802,0.5805,0.5815,0.5835,0.5841,0.5887,0.5874,0.5902,0.5955,0.5971,0.5986,0.6057,0.6046,0.6067,0.6103,0.6132,0.614,0.6147,0.617,0.6179,0.6073,0.6073,0.6073,0,0.574,0.5788,0.5786,0.5823,0.584,0.5825,0.5865,0.588,0.5912,0.5923,0.5908,0.5972,0.5986,0.6042,0.6059,0.6072,0.6082,0.6064,0.6139,0.6146,0.6152,0.6174,0.6183,0.6075,0.6075,0.6075,0.6074,0,0.5826,0.586,0.589,0.5919,0.594,0.5979,0.5982,0.6003,0.5998,0.6003,0.6049,0.6065,0.6096,0.6109,0.6106,0.6164,0.6154,0.6139,0.611,0.6164,0.6185,0.6193,0.6078,0.6077,0.6077,0.6076,0,0,0.5916,0.5942,0.5953,0.5965,0.5988,0.6014,0.6051,0.6081,0.6098,0.612,0.6149,0.6194,0.6178,0.6196,0.6193,0.6219,0.6271,0.62,0.62,0.6211,0.6333,0.6344,0.6354,0.6264,0.6266,0.6267,0.6331,0,0.5984,0.6049,0.6047,0.6107,0.6137,0.6122,0.6154,0.6171,0.6177,0.6203,0.6209,0.6239,0.6218,0.6228,0.6253,0.626,0.6296,0.6255,0.6291,0.6292,0.6284,0.6365,0.6376,0.6436,0.6339,0.6341,0.6342,0,0.6072,0.6095,0.6158,0.6174,0.6187,0.6216,0.6241,0.6267,0.6285,0.6287,0.6305,0.6298,0.6335,0.6306,0.6355,0.6328,0.6342,0.6348,0.635,0.6352,0.6319,0.6367,0.6455,0.6463,0.6355,0.6354,0.6353,0,0.6128,0.6176,0.6218,0.6229,0.625,0.6271,0.628,0.6297,0.6314,0.6336,0.6347,0.6374,0.6388,0.6408,0.6408,0.6387,0.6457,0.6429,0.6459,0.6459,0.6473,0.6472,0.6562,0.6485,0.6485,0.6485,0.6485,0,0.6203,0.6242,0.6243,0.627,0.6312,0.6309,0.6351,0.6358,0.6373,0.64,0.6389,0.6414,0.6414,0.6439,0.644,0.6479,0.6486,0.6488,0.6487,0.6488,0.6487,0.6496,0.6491,0.6487,0.6487,0.6486,0.6486,0,0.6273,0.6276,0.6321,0.6337,0.6342,0.6372,0.6385,0.6409,0.6413,0.6447,0.6455,0.6461,0.649,0.6492,0.6526,0.6526,0.6573,0.6569,0.6567,0.6566,0.6594,0.6591,0.6692,0.6705,0.6621,0.6622,0.6623,0,0.632,0.6349,0.6367,0.6384,0.6394,0.6422,0.6438,0.6437,0.6454,0.6477,0.6498,0.6526,0.6548,0.6595,0.6602,0.6628,0.6623,0.6656,0.6626,0.6625,0.6621,0.6618,0.662,0.6662,0.6663,0.6664,0.6664,0,0.6402,0.6401,0.6426,0.645,0.647,0.649,0.6508,0.6522,0.6522,0.6543,0.6572,0.6589,0.6623,0.665,0.6674,0.6683,0.6673,0.6674,0.6681,0.6682,0.6678,0.6678,0.6581,0.6671,0.667,0.667,0.6669,0.6669,0.646,0.6484,0.65,0.6527,0.654,0.6557,0.6579,0.6586,0.661,0.6637,0.6634,0.6666,0.6682,0.6714,0.6725,0.6749,0.6737,0.6749,0.6752,0.6755,0.6756,0.6675,0.6754,0.6753,0.6753,0.6753,0.6753,0,0.6539,0.6548,0.6573,0.6598,0.6619,0.6608,0.6626,0.6644,0.6672,0.6688,0.6709,0.6742,0.6768,0.6777,0.6801,0.6819,0.6815,0.6825,0.6823,0.6825,0.6767,0.6756,0.6828,0.6828,0.6828,0.6828,0.6828,0.6828,0.6583,0.6622,0.6623,0.6668,0.6677,0.6708,0.6719,0.6734,0.6746,0.6783,0.6804,0.6809,0.6822,0.6847,0.6869,0.6871,0.688,0.6892,0.6892,0.6837,0.6829,0.6822,0.6812,0.6895,0.6895,0.6948,0.6948,0.6949]},{"header":{"parameterUnit":"m.s-1","parameterCategory":1,"la1":30.2991,"la2":30.254,"lo1":-89.0895,"lo2":-89.0444,"dy":0.0017,"dx":0.0017,"nx":28,"ny":28,"refTime":"2024-03-26T21:00:00:Z","depth":0,"parameterNumber":3,"parameterNumberName":"V-component_of_WINDS"},"data":[0,0,0,0,0,0,0,0,0,0,0,0,0,0,0,0,0,0,0,0,0,0,0,0,0,0,0,0,0,0,0,0,0,0,0,0,0,0,0,0,0,0,0,0,0,0,0,0,0,0,0,0,0,0,0,0,0,0,-0.1165,-0.1168,0,-0.1388,-0.139,-0.1393,-0.1465,-0.1464,-0.1463,-0.1462,-0.1697,-0.1704,-0.1711,0,0,0,0,0,0,0,0,0,0,0,0,0,-0.0809,-0.0816,-0.1165,-0.1168,-0.1171,-0.1387,-0.139,-0.1393,-0.1466,-0.1464,-0.1463,-0.1462,-0.1694,-0.1703,-0.1711,0,0,0,0,0,0,0,0,0,0,0,0,0,-0.0991,-0.0818,-0.1165,-0.1233,-0.1241,-0.1387,-0.139,-0.1394,-0.1466,-0.1464,-0.1463,-0.1461,-0.1692,-0.1702,-0.1713,-0.1809,0,0,-0.1745,-0.175,0,0,0,0,0,0,0,0,-0.0981,-0.1004,-0.122,-0.1228,-0.1238,-0.1397,-0.1351,-0.1533,-0.1466,-0.1381,-0.1462,-0.1461,-0.1599,-0.1617,-0.1662,-0.182,-0.183,-0.1746,-0.1753,-0.1758,-0.1761,0,0,0,0,0,0,0,-0.0968,-0.0995,-0.1253,-0.1223,-0.1234,-0.1254,-0.1278,-0.1386,-0.1496,-0.1388,-0.1394,-0.1419,-0.1603,-0.1652,-0.1668,-0.1833,-0.1746,-0.1756,-0.1762,-0.1767,-0.2084,-0.2086,0,0,0,0,0,0,-0.0943,-0.0984,-0.1246,-0.126,-0.1103,-0.1262,-0.1289,-0.1348,-0.1495,-0.1515,-0.142,-0.1421,-0.1634,-0.1656,-0.1677,-0.1802,-0.1757,-0.1768,-0.1774,-0.2082,-0.2084,-0.2086,0,0,0,0,0,0,-0.0935,-0.0966,-0.1237,-0.1124,-0.116,-0.1269,-0.1335,-0.1353,-0.1401,-0.1518,-0.1539,-0.1449,-0.1634,-0.1662,-0.1776,-0.1811,-0.1772,-0.1782,-0.2079,-0.2082,-0.2085,-0.205,0,0,0,0,0,0,-0.0925,-0.0962,-0.0999,-0.1124,-0.1165,-0.1331,-0.1337,-0.1358,-0.1419,-0.1423,-0.1551,-0.1571,-0.1635,-0.1759,-0.1786,-0.1825,-0.1791,-0.2077,-0.2081,-0.2084,-0.2049,-0.2052,-0.2054,0,0,0,0,0,-0.0912,-0.0981,-0.1,-0.1031,-0.1213,-0.1332,-0.1356,-0.1427,-0.1421,-0.146,-0.1535,-0.1567,-0.1801,-0.177,-0.1801,-0.1844,-0.2075,-0.208,-0.2084,-0.2048,-0.2051,-0.2054,0,0,0,0,0,0,-0.086,-0.0999,-0.1022,-0.1133,-0.122,-0.1344,-0.1395,-0.1428,-0.152,-0.152,-0.1605,-0.1633,-0.1742,-0.1804,-0.1766,-0.1946,-0.194,-0.1951,-0.1902,-0.1906,-0.1908,-0.1893,-0.18,0,0,0,0,0,-0.086,-0.0944,-0.1061,-0.1149,-0.1191,-0.1285,-0.134,-0.1386,-0.1481,-0.1519,-0.1602,-0.1695,-0.179,-0.1851,-0.1944,-0.2057,-0.2088,-0.2101,-0.2104,-0.2105,-0.2115,-0.2182,-0.2191,-0.2101,-0.2101,-0.2101,0,0,-0.0865,-0.0951,-0.0999,-0.114,-0.1213,-0.13,-0.1316,-0.1407,-0.1473,-0.1533,-0.1646,-0.171,-0.1819,-0.1933,-0.1988,-0.1989,-0.2146,-0.2111,-0.2111,-0.2121,-0.2188,-0.2196,-0.2203,-0.2104,-0.2103,-0.2103,0,0,-0.0917,-0.0989,-0.1071,-0.1143,-0.1252,-0.1314,-0.1333,-0.1453,-0.1498,-0.1611,-0.1659,-0.1739,-0.19,-0.1976,-0.2036,-0.2116,-0.215,-0.2144,-0.216,-0.2224,-0.2231,-0.2238,-0.227,-0.228,-0.2153,-0.2152,-0.2152,0,-0.0909,-0.104,-0.1109,-0.1198,-0.126,-0.1315,-0.14,-0.1467,-0.1602,-0.1645,-0.1643,-0.1846,-0.1923,-0.2058,-0.2077,-0.2122,-0.215,-0.2132,-0.2224,-0.2231,-0.2239,-0.227,-0.2282,-0.2151,-0.2151,-0.2152,-0.2152,0,-0.1027,-0.1116,-0.1169,-0.1297,-0.1364,-0.145,-0.1535,-0.1595,-0.1635,-0.1698,-0.1814,-0.1908,-0.2022,-0.2057,-0.2097,-0.2197,-0.2195,-0.2206,-0.2204,-0.2245,-0.2276,-0.2289,-0.215,-0.215,-0.215,-0.2151,0,0,-0.1056,-0.1218,-0.1237,-0.1296,-0.142,-0.1493,-0.1581,-0.1691,-0.1743,-0.1834,-0.1913,-0.2047,-0.2059,-0.2127,-0.2176,-0.2232,-0.2293,-0.2238,-0.2242,-0.2248,-0.2413,-0.2406,-0.2419,-0.2314,-0.2317,-0.2319,-0.2405,0,-0.1127,-0.1287,-0.1352,-0.1483,-0.1569,-0.1622,-0.17,-0.1786,-0.1846,-0.1929,-0.1997,-0.2092,-0.2099,-0.2141,-0.2197,-0.2273,-0.2328,-0.2267,-0.2393,-0.2396,-0.2368,-0.2435,-0.2428,-0.2506,-0.2418,-0.242,-0.2421,0,-0.1233,-0.1323,-0.1462,-0.1576,-0.1615,-0.1683,-0.179,-0.1867,-0.1966,-0.2007,-0.2081,-0.2127,-0.2226,-0.2212,-0.2351,-0.2308,-0.2363,-0.2407,-0.2412,-0.243,-0.2414,-0.2459,-0.2532,-0.2545,-0.2441,-0.2439,-0.2438,0,-0.1245,-0.14,-0.1504,-0.1553,-0.1688,-0.1735,-0.1794,-0.1891,-0.1953,-0.2047,-0.2089,-0.2192,-0.225,-0.233,-0.2404,-0.2387,-0.2537,-0.2529,-0.2576,-0.2575,-0.2609,-0.2607,-0.2696,-0.2637,-0.2637,-0.2636,-0.2636,0,-0.132,-0.1404,-0.1511,-0.1576,-0.1672,-0.1745,-0.184,-0.1902,-0.1988,-0.2068,-0.2119,-0.2193,-0.2283,-0.2369,-0.2427,-0.2535,-0.2559,-0.2597,-0.2613,-0.2596,-0.2591,-0.2636,-0.2634,-0.264,-0.2639,-0.2638,-0.2638,0,-0.1352,-0.1426,-0.1544,-0.1661,-0.1693,-0.1759,-0.1861,-0.1927,-0.1988,-0.2088,-0.2116,-0.2214,-0.2318,-0.2398,-0.2533,-0.2572,-0.2688,-0.2702,-0.2654,-0.2663,-0.2707,-0.2704,-0.2832,-0.2854,-0.2775,-0.2776,-0.2776,0,-0.1397,-0.1463,-0.1587,-0.1643,-0.17,-0.179,-0.1853,-0.1927,-0.1992,-0.2109,-0.2161,-0.2268,-0.2358,-0.2522,-0.2607,-0.2712,-0.2732,-0.2769,-0.2748,-0.2729,-0.2737,-0.2734,-0.2743,-0.2773,-0.2774,-0.2774,-0.2775,0,-0.1471,-0.1505,-0.1593,-0.1694,-0.1767,-0.1851,-0.1936,-0.198,-0.207,-0.214,-0.2245,-0.2315,-0.2452,-0.2559,-0.2672,-0.2736,-0.2772,-0.2779,-0.2797,-0.2783,-0.2754,-0.2774,-0.2666,-0.2778,-0.2777,-0.2777,-0.2777,-0.2777,-0.1515,-0.1576,-0.1673,-0.177,-0.1841,-0.1919,-0.1987,-0.2056,-0.2145,-0.2262,-0.23,-0.241,-0.2509,-0.2664,-0.2728,-0.2817,-0.2818,-0.2842,-0.2849,-0.2855,-0.2856,-0.2735,-0.2837,-0.2837,-0.2837,-0.2837,-0.2837,0,-0.1595,-0.1659,-0.1747,-0.1864,-0.194,-0.1963,-0.2058,-0.2122,-0.2217,-0.2305,-0.2392,-0.2514,-0.2618,-0.271,-0.2819,-0.2872,-0.2892,-0.2899,-0.2898,-0.2913,-0.2846,-0.2822,-0.2882,-0.2882,-0.2882,-0.2881,-0.2881,-0.2881,-0.1646,-0.1752,-0.1797,-0.194,-0.2004,-0.2111,-0.2164,-0.2237,-0.2308,-0.2442,-0.2527,-0.2585,-0.2676,-0.2791,-0.2888,-0.2913,-0.2953,-0.2956,-0.2986,-0.2923,-0.2917,-0.2912,-0.2891,-0.2963,-0.2963,-0.3046,-0.3046,-0.3047]}]]